Location: Silverdale
(47.6506°N, 122.6941°W)
Time: 00:15:20
(UTC+00:00)

Tiangong - Visible Passes

Search period start: 13 August 2022 00:00
Search period end: 23 August 2022 00:00
Orbit: 380 x 386 km, 41.5° (Epoch: 12 August)

Date Brightness Start Highest point End Pass type
(mag) Time Alt. Az. Time Alt. Az. Time Alt. Az.
16 Aug 0.1 04:56:33 10° SSW 04:57:14 13° SSW 04:57:14 13° SSW visible
17 Aug 0.0 03:58:17 10° S 03:59:35 12° SSE 04:00:53 10° SE visible
17 Aug 0.5 05:33:11 10° SW 05:33:27 12° SW 05:33:27 12° SW visible
18 Aug -0.7 04:34:25 10° SW 04:36:52 21° SSE 04:37:22 20° SSE visible
19 Aug -0.5 05:11:48 10° WSW 05:13:34 22° SSW 05:13:34 22° SSW visible
20 Aug -0.8 04:13:17 10° SW 04:15:55 24° S 04:17:35 16° SE visible
20 Aug 0.8 05:49:47 10° WSW 05:49:51 10° WSW 05:49:51 10° WSW visible
21 Aug -0.8 04:51:17 10° WSW 04:53:57 25° S 04:53:58 25° S visible
22 Aug -0.8 03:53:02 10° WSW 03:55:43 26° S 03:58:13 11° ESE visible
22 Aug 0.5 05:29:54 10° WSW 05:30:31 13° SW 05:30:31 13° SW visible
